Tracking 19817 objects as of 19-Aug-2019
HD Live streaming from Space Station
objects crossing your sky now

SL-18 DEB

Track SL-18 DEB now!
10-day predictions


NORAD ID: 22599
Int'l Code: 1993-014E
Perigee: 654.2 km
Apogee: 868.3 km
Inclination: 75.8 °
Period: 99.9 minutes
Semi major axis: 7132 km
RCS: 0.042 m2 (small)
Launch date: March 25, 1993
Source: Commonwealth of Independent States (former USSR) (CIS)
Launch site: PLESETSK MISSILE AND SPACE COMPLEX (PKMTR)

Note: This is SATELLITE DEBRIS
aabbcc
Your satellite tracking list
Your tracking list is empty




NASA's NSSDC Master Catalog

Two Line Element Set (TLE):
1 22599U 93014E   19228.83267089  .00000235  00000-0  67374-4 0  9990
2 22599  75.7571 158.3498 0150110  96.3662 265.4622 14.41322724379218
Source of the keplerian elements: AFSPC